| time (UTC) | temp F | wind direction | speed MPH | gust MPH | rain 1hr in | rain 24hr in | rain mn in | humidity % | barometer mb |
| 20260903213001 | 78 | 237 | 10.0 | 23.0 | 0.00 | 0.00 | 0.00 | 27 | 1003.6 |
| 20260903211501 | 78 | 267 | 6.0 | 15.0 | 0.00 | 0.00 | 0.00 | 27 | 1003.5 |
| 20260903204558 | 76 | 247 | 6.0 | 14.0 | 0.00 | 0.00 | 0.00 | 29 | 1003.6 |
| 20260903203106 | 76 | 242 | 7.0 | 16.0 | 0.00 | 0.00 | 0.00 | 29 | 1003.7 |
| 20260903201556 | 77 | 225 | 14.0 | 21.0 | 0.00 | 0.00 | 0.00 | 28 | 1003.6 |
| 20260903200055 | 77 | 194 | 12.0 | 18.0 | 0.00 | 0.00 | 0.00 | 28 | 1003.7 |
| 20260903194556 | 76 | 234 | 10.0 | 18.0 | 0.00 | 0.00 | 0.00 | 29 | 1003.7 |
| 20260903193052 | 76 | 259 | 7.0 | 19.0 | 0.00 | 0.00 | 0.00 | 30 | 1003.8 |
| 20260903191551 | 75 | 208 | 7.0 | 20.0 | 0.00 | 0.00 | 0.00 | 30 | 1003.8 |
| 20260903190051 | 76 | 288 | 6.0 | 18.0 | 0.00 | 0.00 | 0.00 | 30 | 1003.7 |
| 20260903184549 | 75 | 215 | 12.0 | 21.0 | 0.00 | 0.00 | 0.00 | 30 | 1003.7 |
| 20260903183047 | 73 | 224 | 10.0 | 19.0 | 0.00 | 0.00 | 0.00 | 35 | 1003.7 |
| 20260903181542 | 72 | 252 | 6.0 | 13.0 | 0.00 | 0.00 | 0.00 | 39 | 1003.8 |
| 20260903180047 | 71 | 200 | 10.0 | 15.0 | 0.00 | 0.00 | 0.00 | 40 | 1004.0 |
| 20260903174537 | 69 | 229 | 7.0 | 13.0 | 0.00 | 0.00 | 0.00 | 44 | 1004.1 |
| 20260903173033 | 68 | 240 | 6.0 | 13.0 | 0.00 | 0.00 | 0.00 | 46 | 1004.3 |
| 20260903171537 | 66 | 212 | 7.0 | 14.0 | 0.00 | 0.00 | 0.00 | 47 | 1004.2 |
| 20260903170036 | 65 | 248 | 8.0 | 15.0 | 0.00 | 0.00 | 0.00 | 48 | 1004.1 |
| 20260903164524 | 63 | 237 | 10.0 | 16.0 | 0.00 | 0.00 | 0.00 | 51 | 1004.0 |
| 20260903163024 | 61 | 194 | 8.0 | 15.0 | 0.00 | 0.00 | 0.00 | 56 | 1004.0 |
| 20260903161515 | 60 | 245 | 6.0 | 14.0 | 0.00 | 0.00 | 0.00 | 59 | 1004.2 |
| 20260903160013 | 59 | 226 | 6.0 | 9.0 | 0.00 | 0.00 | 0.00 | 61 | 1004.2 |
| 20260903154510 | 58 | 211 | 6.0 | 12.0 | 0.00 | 0.00 | 0.00 | 62 | 1004.2 |
| 20260903153006 | 57 | 241 | 6.0 | 10.0 | 0.00 | 0.00 | 0.00 | 63 | 1004.2 |
| 20260903151506 | 57 | 229 | 5.0 | 10.0 | 0.00 | 0.00 | 0.00 | 64 | 1004.1 |
| 20260903150003 | 55 | 239 | 7.0 | 13.0 | 0.00 | 0.00 | 0.00 | 65 | 1004.0 |
| 20260903144610 | 54 | 207 | 7.0 | 12.0 | 0.00 | 0.00 | 0.00 | 66 | 1004.1 |
| 20260903143056 | 53 | 209 | 5.0 | 11.0 | 0.00 | 0.00 | 0.00 | 67 | 1003.9 |
| 20260903141551 | 52 | 237 | 5.0 | 10.0 | 0.00 | 0.00 | 0.00 | 68 | 1003.7 |
| 20260903140051 | 51 | 230 | 5.0 | 9.0 | 0.00 | 0.00 | 0.00 | 68 | 1003.6 |
| 20260903134602 | 51 | 236 | 5.0 | 9.0 | 0.00 | 0.00 | 0.00 | 68 | 1003.6 |
| 20260903133048 | 51 | 234 | 5.0 | 8.0 | 0.00 | 0.00 | 0.00 | 67 | 1003.4 |
| 20260903131545 | 52 | 203 | 6.0 | 16.0 | 0.00 | 0.00 | 0.00 | 65 | 1003.2 |
| 20260903130043 | 51 | 200 | 9.0 | 16.0 | 0.00 | 0.00 | 0.00 | 67 | 1002.6 |
| 20260903124551 | 52 | 207 | 8.0 | 15.0 | 0.00 | 0.00 | 0.00 | 65 | 1002.6 |
| 20260903123040 | 51 | 221 | 8.0 | 14.0 | 0.00 | 0.00 | 0.00 | 67 | 1002.6 |
| 20260903121540 | 51 | 217 | 6.0 | 10.0 | 0.00 | 0.00 | 0.00 | 68 | 1002.6 |
| 20260903120043 | 50 | 217 | 6.0 | 11.0 | 0.00 | 0.00 | 0.00 | 69 | 1002.6 |
| 20260903114540 | 50 | 194 | 8.0 | 14.0 | 0.00 | 0.00 | 0.00 | 69 | 1002.7 |
| 20260903113040 | 49 | 193 | 7.0 | 15.0 | 0.00 | 0.00 | 0.00 | 71 | 1002.7 |
| 20260903111534 | 47 | 192 | 6.0 | 10.0 | 0.00 | 0.00 | 0.00 | 75 | 1002.6 |
| 20260903110036 | 47 | 202 | 4.0 | 7.0 | 0.00 | 0.00 | 0.00 | 74 | 1002.4 |
| 20260903104533 | 47 | 202 | 6.0 | 9.0 | 0.00 | 0.00 | 0.00 | 75 | 1002.6 |
| 20260903103030 | 46 | 190 | 4.0 | 7.0 | 0.00 | 0.00 | 0.00 | 76 | 1002.6 |
| 20260903101527 | 46 | 270 | 1.0 | 4.0 | 0.00 | 0.00 | 0.00 | 76 | 1002.4 |
| 20260903100030 | 47 | 232 | 2.0 | 5.0 | 0.00 | 0.00 | 0.00 | 75 | 1002.5 |
| 20260903094524 | 47 | 261 | 2.0 | 5.0 | 0.00 | 0.00 | 0.00 | 74 | 1002.4 |
| 20260903093023 | 48 | 237 | 4.0 | 6.0 | 0.00 | 0.00 | 0.00 | 75 | 1002.5 |
| 20260903091521 | 47 | 225 | 4.0 | 6.0 | 0.00 | 0.00 | 0.00 | 75 | 1002.5 |
| 20260903090019 | 48 | 259 | 0.0 | 2.0 | 0.00 | 0.00 | 0.00 | 74 | 1002.3 |
| 20260903084535 | 49 | 262 | 0.0 | 2.0 | 0.00 | 0.00 | 0.00 | 72 | 1002.3 |
| 20260903083014 | 49 | 246 | 2.0 | 6.0 | 0.00 | 0.00 | 0.00 | 73 | 1002.0 |
| 20260903081513 | 48 | 235 | 3.0 | 7.0 | 0.00 | 0.00 | 0.00 | 74 | 1002.1 |
| 20260903080010 | 49 | 248 | 3.0 | 6.0 | 0.00 | 0.00 | 0.00 | 74 | 1002.0 |
| 20260903074509 | 49 | 223 | 4.0 | 7.0 | 0.00 | 0.00 | 0.00 | 74 | 1002.1 |
| 20260903073009 | 50 | 234 | 3.0 | 7.0 | 0.00 | 0.00 | 0.00 | 73 | 1002.0 |
| 20260903071506 | 50 | 213 | 6.0 | 9.0 | 0.00 | 0.00 | 0.00 | 72 | 1002.0 |
| 20260903070004 | 50 | 274 | 3.0 | 9.0 | 0.00 | 0.00 | 0.00 | 74 | 1002.0 |
| 20260903064501 | 49 | 306 | 3.0 | 7.0 | 0.00 | 0.00 | 0.00 | 73 | 1001.9 |
| 20260903063110 | 51 | 228 | 2.0 | 6.0 | 0.00 | 0.00 | 0.00 | 70 | 1001.6 |
| 20260903061558 | 52 | 219 | 5.0 | 11.0 | 0.00 | 0.00 | 0.00 | 69 | 1001.3 |
| 20260903060050 | 52 | 248 | 7.0 | 11.0 | 0.00 | 0.00 | 0.00 | 71 | 1001.5 |
| 20260903054549 | 52 | 224 | 6.0 | 12.0 | 0.00 | 0.00 | 0.00 | 73 | 1001.7 |
| 20260903053107 | 51 | 219 | 6.0 | 10.0 | 0.00 | 0.00 | 0.00 | 74 | 1002.1 |
| 20260903051546 | 51 | 210 | 5.0 | 7.0 | 0.00 | 0.00 | 0.00 | 74 | 1002.2 |
| 20260903050057 | 52 | 223 | 3.0 | 7.0 | 0.00 | 0.00 | 0.00 | 74 | 1002.1 |
| 20260903044556 | 52 | 218 | 5.0 | 9.0 | 0.00 | 0.00 | 0.00 | 75 | 1002.2 |
| 20260903043049 | 53 | 242 | 6.0 | 9.0 | 0.00 | 0.00 | 0.00 | 74 | 1002.1 |
| 20260903041549 | 53 | 246 | 6.0 | 10.0 | 0.00 | 0.00 | 0.00 | 74 | 1001.9 |
| 20260903040040 | 53 | 226 | 4.0 | 6.0 | 0.00 | 0.00 | 0.00 | 73 | 1002.0 |
| 20260903034541 | 54 | 216 | 5.0 | 8.0 | 0.00 | 0.00 | 0.00 | 72 | 1001.9 |
| 20260903033038 | 56 | 253 | 3.0 | 7.0 | 0.00 | 0.00 | 0.00 | 70 | 1001.8 |
| 20260903031538 | 56 | 288 | 2.0 | 6.0 | 0.00 | 0.00 | 0.00 | 70 | 1001.4 |
| 20260903030038 | 58 | 275 | 1.0 | 5.0 | 0.00 | 0.00 | 0.00 | 66 | 1001.7 |
| 20260903024537 | 59 | 221 | 2.0 | 10.0 | 0.00 | 0.00 | 0.00 | 63 | 1001.5 |
| 20260903023037 | 59 | 190 | 6.0 | 15.0 | 0.00 | 0.00 | 0.00 | 62 | 1001.2 |
| 20260903021541 | 60 | 199 | 8.0 | 15.0 | 0.00 | 0.00 | 0.00 | 60 | 1000.8 |
| 20260903020036 | 61 | 186 | 8.0 | 14.0 | 0.00 | 0.00 | 0.00 | 60 | 1001.0 |
| 20260903014535 | 62 | 190 | 4.0 | 7.0 | 0.00 | 0.00 | 0.00 | 60 | 1000.8 |
| 20260903013035 | 64 | 223 | 3.0 | 6.0 | 0.00 | 0.00 | 0.00 | 56 | 1000.8 |
| 20260903011536 | 64 | 224 | 1.0 | 9.0 | 0.00 | 0.00 | 0.00 | 58 | 1001.4 |
| 20260903010034 | 62 | 167 | 3.0 | 7.0 | 0.00 | 0.00 | 0.00 | 62 | 1001.6 |
| 20260903004534 | 63 | 223 | 3.0 | 6.0 | 0.00 | 0.00 | 0.00 | 59 | 1001.1 |
| 20260903003033 | 62 | 289 | 5.0 | 15.0 | 0.00 | 0.00 | 0.00 | 59 | 1000.5 |
| 20260903001532 | 62 | 279 | 10.0 | 17.0 | 0.00 | 0.00 | 0.00 | 61 | 1000.6 |
| 20260903000035 | 61 | 300 | 8.0 | 27.0 | 0.00 | 0.00 | 0.00 | 64 | 1001.2 |
| 20260902234532 | 60 | 277 | 11.0 | 23.0 | 0.00 | 0.00 | 0.00 | 66 | 1001.2 |
| 20260902233031 | 60 | 240 | 12.0 | 24.0 | 0.00 | 0.00 | 0.00 | 66 | 1001.5 |
| 20260902231533 | 61 | 220 | 20.0 | 45.0 | 0.00 | 0.00 | 0.00 | 63 | 1001.0 |
| 20260902230030 | 73 | 207 | 21.0 | 36.0 | 0.00 | 0.00 | 0.00 | 39 | 999.6 |
| 20260902224529 | 81 | 140 | 8.0 | 14.0 | 0.00 | 0.00 | 0.00 | 29 | 997.1 |
| 20260902223028 | 82 | 164 | 6.0 | 12.0 | 0.00 | 0.00 | 0.00 | 28 | 997.0 |
| 20260902221533 | 82 | 111 | 5.0 | 11.0 | 0.00 | 0.00 | 0.00 | 28 | 997.0 |
| 20260902220040 | 83 | 143 | 8.0 | 14.0 | 0.00 | 0.00 | 0.00 | 28 | 997.0 |
| 20260902214525 | 84 | 150 | 6.0 | 16.0 | 0.00 | 0.00 | 0.00 | 28 | 997.1 |